Location: Zagreb
(45.8000°N, 16.0000°E)
Time: 00:28:21
(UTC+01:00)

Transit 2A Rocket - Pass Details

Date: 03 October 2020
Orbit: 586 x 916 km, 66.7° (Epoch: 28 October)

Event Time Altitude Azimuth Distance (km) Brightness Sun altitude
Rises 02:16:01 0° 321° (NW) 3,387 - -43.8°
Reaches altitude 10° 02:18:44 10° 313° (NW) 2,397 - -43.5°
Maximum altitude 02:23:40 36° 249° (WSW) 1,197 - -43.1°
Drops below altitude 10° 02:28:12 10° 183° (S) 2,179 - -42.6°
Sets 02:30:34 0° 175° (S) 3,040 - -42.4°
